Tracking 20621 objects as of 31-Mar-2020
HD Live streaming from Space Station
objects crossing your sky now

DIRECTV 9S

Track DIRECTV 9S now!
DIRECTV 9S is classified as:


NORAD ID: 29494
Int'l Code: 2006-043A
Perigee: 35,780.4 km
Apogee: 35,807.0 km
Inclination: 0.0 °
Period: 1,436.1 minutes
Semi major axis: 42164 km
RCS: 13.8838 m2 (large)
Launch date: October 13, 2006
Source: United States (US)
Launch site: FRENCH GUIANA (FRGUI)

DIRECTV 9S will supply television broadcast services to the contiguous United States of America, Alaska and Hawaii
aabbcc
Your satellite tracking list
Your tracking list is empty




NASA's NSSDC Master Catalog

Two Line Element Set (TLE):
1 29494U 06043A   20090.60453640 -.00000114 +00000-0 +00000-0 0  9997
2 29494 000.0202 177.9394 0003149 188.0362 298.8828 01.00271927049343
Source of the keplerian elements: AFSPC